842  
SXUS52 KTAE 230616  
OSOTAE  
OSOTAE  
NORTH FLORIDA/SOUTH ALABAMA/SOUTHWEST GEORGIA WEATHER ROUNDUP  
NATIONAL WEATHER SERVICE TALLAHASSEE FLORIDA  
100 AM EST THU JAN 23 2020  
 
NOTE: "FAIR" INDICATES FEW OR NO CLOUDS BELOW 12,000 FEET WITH NO  
SIGNIFICANT WEATHER AND/OR OBSTRUCTIONS TO VISIBILITY.  
 
!FLZ017-115-028-034-025-230700   
..NORTH FLORIDA
 
 
 
CITY SKY/WX TMP DP RH WIND PRES REMARKS  
TALL INTL ARPT CLOUDY 52 25 35 E10 30.20S  
FSU LOVE BLDG N/A 52 27 37 E9G16 N/A  
APALACHICOLA FAIR 49 32 52 NE7 30.17F  
PERRY MOCLDY 52 29 42 NE8 30.21F  
CROSS CITY FAIR 51 36 55 NE9 30.18F  
JACKSONVILLE N/A N/A N/A N/A MISG N/A  

 
 
!FLZ112-006-005-002-011-230700   
..FLORIDA PANHANDLE
 
 
 
CITY SKY/WX TMP DP RH WIND PRES REMARKS  
MARIANNA CLOUDY 48 25 40 E12 30.20F WCI 43  
BONIFAY MOCLDY 49 24 37 NE7 30.21  
PANAMA CITY NW FAIR 50 26 39 NE8 30.17F  
TYNDALL AFB CLOUDY 49 31 49 NE7 30.18  
TYND DRONE APT MOCLDY 49 32 52 NE8 30.18F WCI 45  
DE FUNIAK SPR CLOUDY 47 26 44 E9 30.19F WCI 42  
EGLIN AFB FAIR 49 27 42 E10 30.14  
DESTIN FAIR 50 29 44 E10 30.16F  
HURLBURT FAIR 51 30 45 E14G21 30.13F  
CRESTVIEW FAIR 48 26 42 E9 30.18F WCI 44  
PENSACOLA FAIR 50 32 50 E10 30.14F  

 
 
!ALZ063-066-230700   
..SOUTH ALABAMA
 
 
 
CITY SKY/WX TMP DP RH WIND PRES REMARKS  
DOTHAN FAIR 47 23 38 E10 30.24F WCI 42  
OZARK CAIRNS FAIR 47 22 37 E9 30.20S WCI 43  
FT RUCKER HELI MOCLDY 47 22 36 E5 30.20F WCI 45  
RUCKER HELI 3 FAIR 46 19 34 MISG 30.17F  
RUCKER HELI 2 FAIR 47 22 36 E3 30.20S  
FLORALA APT FAIR 47 25 42 E8 30.18F WCI 43  
ANDALUSIA FAIR 50 22 33 E9G17 30.17  
TROY FAIR 47 20 34 E9 30.20F WCI 43  
EUFALA NOT AVBL  
MOBILE FAIR 43 29 57 CALM 30.18S  

 
 
!GAZ120>161-230700   
..SOUTHWEST AND SOUTH CENTRAL GEORGIA
 
 
 
CITY SKY/WX TMP DP RH WIND PRES REMARKS  
THOMASVILLE CLOUDY 46 27 46 E10 30.23F WCI 41  
BAINBRIDGE CLOUDY 48 26 42 E13 30.22F WCI 42  
MOODY AFB MOCLDY 46 27 47 NE8 30.21 WCI 42  
VALDOSTA CLOUDY 49 28 44 NE8 30.23F  
MOULTRIE FAIR 46 27 46 NE3 30.23F  
BLAKELY MOCLDY 45 21 39 E8 30.24F WCI 40  
ALBANY MOCLDY 46 23 40 NE8 30.26F WCI 42  
TIFTON FAIR 45 24 44 NE7 30.23 WCI 41  
FITZGERALD FAIR 44 25 46 NE6 30.27F WCI 41  
CORDELE MOCLDY 44 18 35 E6 30.27F WCI 40  
AMERICUS FAIR 45 23 42 E6 30.27F WCI 41  
HOMERVILLE FAIR 43 30 61 NE3 30.23F  

 
 
!GMZ750-755-770-775-230700   
..COASTAL AND BUOY OBS
 
 
 
STATION/POSITION TIME TEMP WIND PRES VSBY WAVE  
AIR SEA DIR/SP/G HT/PER  
(UTC) (F) (DEG/KT/KT) (MB) (MI) (FT/S)  
KEATON BEACH 0600 51 50/ 11/ 14 1022.2F  
CEDAR KEY 0600 52 50/ 12/ 15 1020.9F  
C TOWER 0600 56 70/ 22/ 23 1021.1F  
APALACHICOLA BUO 0600 61 60/ 19/ 23 1021.0  
PANAMA CITY BUOY 0600 90/ 17/ 21 1020.2  
MOBILE BUOY 0600 61 120/ 14/ 17 1020.9  
ORANGE BCH AL BU 0550 58 63 100/ 17/ 21 1020.7F 4/ 5  

 
 
 
CLICK HERE TO GO TO PREVIOUS BULLETINS.

The Nexlab FL Page
The Nexlab GA Page
The Nexlab AL Page Main Text Page